カタログに戻る

STARLINK-36398

運用中通信SSO
NORAD 67562·PAYLOAD·🇺🇸 United States

打ち上げ Jan 25, 2026 から Vandenberg Space Force Base

Loading…

次のパス (今後24時間)

TLE

最新Source: CelesTrak SupGP

元期: Sep 14, 2026, 22:43 UTC

1 67562C 26016B   26257.94701389 -.00004341  00000+0 -13473-3 0  2575
2 67562  97.2848 316.7424 0000967  96.8817 240.9769 15.33449224    19

AllMySatでSTARLINK-36398をリアルタイム追跡

Download on the App Store